CAPELLA-1-DENALI (43791 NORAD) Tracking and Keplerian Element Data

This shows tracking and keplerian element data for the satellite.

Feedback or suggestion? Click here.




ElementValue
Catalog43791
NameCAPELLA-1-DENALI
Epoch Orbit22568
Epoch Day14.18285473
Epoch Year2023
RAAN103.4925
Inclination97.6295
Eccentricity0.0011213
Argument of Perigee299.4238
Mean Anonmoly60.5899
Mean Motion15.6197077
Decay Rate0.00944321
L11 43791U 18099AK 23014.18285473 .00944321 00000+0 98255-2 0 9992
L22 43791 97.6295 103.4925 0011213 299.4238 60.5899 15.61970770225686



Live tracking and technical data element details for CAPELLA-1-DENALI (NORAD 43791). CAPELLA-1-DENALI can be tracked NOW for your location showing map with azimuth and elevation plus other details from your city location.







IsCatalogInMostPopularTable: catalog: 43791, numindb: 342
Update: records affected: 1



GetName: 43791 CAPELLA-1-DENALI

Hit Count: updated at: Fri, 16 May 2025 10:25:52 GMT